GW5488 Weather Reports


time (UTC)temp
C
wind
direction
speed
KPH
gust
KPH
rain 1hr
cm
rain 24hr
cm
rain mn
cm
humidity
%
barometer
mb
20260508025804 5 48 1.6 3.2 0.00 0.08 0.00 44 1015.0
20260508025306 5 195 1.6 3.2 0.00 0.08 0.00 45 1014.9
20260508024804 5 224 1.6 4.8 0.00 0.08 0.00 45 1015.0
20260508023803 5 205 1.6 4.8 0.00 0.08 0.00 45 1015.0
20260508023304 5 207 0.0 1.6 0.00 0.08 0.00 45 1015.0
20260508022804 5 190 0.0 1.6 0.00 0.08 0.00 46 1015.1
20260508022306 5 190 0.0 3.2 0.00 0.08 0.00 45 1015.0
20260508021804 5 182 0.0 3.2 0.00 0.08 0.00 45 1015.1
20260508021304 5 194 0.0 3.2 0.00 0.08 0.00 45 1015.2
20260508020804 5 182 1.6 4.8 0.00 0.08 0.00 45 1015.2
20260508020304 5 202 0.0 3.2 0.00 0.08 0.00 45 1015.2
20260508015803 5 215 1.6 8.0 0.00 0.08 0.00 45 1015.2
20260508015306 5 175 0.0 4.8 0.00 0.08 0.00 45 1015.3
20260508014804 5 165 1.6 4.8 0.00 0.08 0.00 44 1015.3
20260508014303 5 162 1.6 4.8 0.00 0.08 0.00 45 1015.3
20260508013803 5 129 1.6 3.2 0.00 0.08 0.00 44 1015.3
20260508013303 5 134 1.6 4.8 0.00 0.08 0.00 44 1015.4
20260508012804 5 146 1.6 4.8 0.00 0.08 0.00 44 1015.4
20260508012307 5 166 1.6 8.0 0.00 0.08 0.00 44 1015.4
20260508011304 5 69 1.6 4.8 0.00 0.08 0.00 43 1015.5
20260508010804 5 132 3.2 4.8 0.00 0.08 0.00 44 1015.4
20260508010304 5 154 1.6 4.8 0.00 0.08 0.00 45 1015.5
20260508005804 5 141 0.0 3.2 0.00 0.08 0.00 45 1015.5
20260508005305 5 190 1.6 3.2 0.00 0.08 0.00 46 1015.5
20260508004804 5 163 1.6 3.2 0.00 0.08 0.00 46 1015.5
20260508004304 5 161 0.0 1.6 0.00 0.08 0.00 46 1015.5
20260508003803 5 160 1.6 3.2 0.00 0.08 0.00 45 1015.4
20260508003304 5 153 1.6 4.8 0.00 0.08 0.00 45 1015.5
20260508002804 5 158 1.6 4.8 0.00 0.08 0.00 44 1015.4
20260508002306 5 151 1.6 4.8 0.00 0.08 0.00 44 1015.5
20260508001804 5 191 0.0 1.6 0.00 0.08 0.00 48 1015.5
20260508000804 5 135 0.0 1.6 0.00 0.08 0.00 47 1015.5
20260508000305 5 188 0.0 3.2 0.00 0.08 0.00 47 1015.4
20260507235803 5 35 0.0 1.6 0.00 0.08 0.00 48 1015.6
20260507235306 5 35 0.0 4.8 0.00 0.08 0.00 48 1015.6
20260507234803 5 52 1.6 4.8 0.00 0.08 0.00 48 1015.5
20260507234304 5 141 1.6 4.8 0.00 0.08 0.00 49 1015.6
20260507233803 5 123 0.0 3.2 0.00 0.08 0.00 49 1015.5
20260507233303 5 25 0.0 3.2 0.00 0.08 0.00 49 1015.6
20260507232306 5 198 0.0 1.6 0.00 0.08 0.00 49 1015.6
20260507231804 5 197 0.0 4.8 0.00 0.08 0.00 49 1015.6
20260507231304 4 144 0.0 3.2 0.00 0.08 0.00 50 1015.7
20260507230803 4 99 0.0 1.6 0.00 0.08 0.00 49 1015.6
20260507230303 4 28 0.0 1.6 0.00 0.08 0.00 50 1015.6
20260507225803 4 28 0.0 1.6 0.00 0.08 0.00 50 1015.6
20260507225306 4 28 1.6 4.8 0.00 0.08 0.00 49 1015.6
20260507224303 3 272 0.0 3.2 0.00 0.08 0.00 52 1015.7
20260507223804 3 272 0.0 1.6 0.00 0.08 0.00 53 1015.6
20260507223304 3 272 0.0 1.6 0.00 0.08 0.00 53 1015.6
20260507222804 3 272 0.0 3.2 0.00 0.08 0.00 53 1015.8
20260507222306 3 270 3.2 4.8 0.00 0.08 0.00 56 1015.8
20260507221304 3 269 0.0 0.0 0.00 0.08 0.00 54 1015.9
20260507220804 3 269 0.0 0.0 0.00 0.08 0.00 54 1015.7
20260507220303 3 269 0.0 1.6 0.00 0.08 0.00 54 1015.8
20260507215804 3 269 0.0 3.2 0.00 0.08 0.08 55 1015.8
20260507215306 3 269 0.0 1.6 0.00 0.08 0.08 55 1015.9
20260507214804 3 269 0.0 1.6 0.00 0.08 0.08 54 1015.8
20260507214303 3 269 0.0 1.6 0.00 0.08 0.08 56 1015.7
20260507213803 3 269 0.0 1.6 0.00 0.08 0.08 54 1015.9
20260507213304 3 269 0.0 0.0 0.00 0.08 0.08 55 1015.9
20260507212803 3 269 0.0 0.0 0.00 0.08 0.08 56 1015.8
20260507211804 3 269 0.0 3.2 0.00 0.08 0.08 57 1016.0
20260507211304 3 269 1.6 4.8 0.00 0.08 0.08 59 1015.9
20260507210804 3 268 0.0 0.0 0.00 0.08 0.08 57 1015.9
20260507210304 3 268 0.0 1.6 0.00 0.08 0.08 58 1015.8
20260507205803 3 268 0.0 1.6 0.00 0.08 0.08 57 1015.8
20260507205306 3 268 0.0 0.0 0.00 0.08 0.08 57 1015.8
20260507204803 3 268 0.0 1.6 0.00 0.08 0.08 57 1015.9
20260507204304 3 268 0.0 1.6 0.00 0.08 0.08 56 1015.9
20260507203804 3 268 1.6 4.8 0.00 0.08 0.08 58 1015.9
20260507203303 3 270 1.6 3.2 0.00 0.08 0.08 57 1015.8
20260507202804 3 270 3.2 4.8 0.00 0.08 0.08 58 1015.9
20260507202306 3 276 0.0 3.2 0.00 0.08 0.08 58 1015.8
20260507200804 4 329 0.0 3.2 0.00 0.08 0.08 55 1015.8
20260507200303 5 91 0.0 1.6 0.00 0.08 0.08 54 1015.8
20260507195804 5 92 0.0 1.6 0.00 0.08 0.08 54 1015.8
20260507195305 5 85 0.0 0.0 0.00 0.08 0.08 53 1015.8
20260507194804 5 85 0.0 1.6 0.00 0.08 0.08 54 1015.8
20260507194304 5 85 0.0 0.0 0.00 0.08 0.08 53 1015.8
20260507193804 5 85 0.0 1.6 0.00 0.08 0.08 53 1015.8
20260507193304 6 85 0.0 0.0 0.00 0.08 0.08 51 1015.8
20260507192803 6 85 0.0 0.0 0.00 0.08 0.08 52 1015.8
20260507192306 6 85 0.0 0.0 0.00 0.08 0.08 50 1015.7
20260507191804 6 85 0.0 0.0 0.00 0.08 0.08 49 1015.7
20260507191304 6 85 0.0 0.0 0.00 0.08 0.08 49 1015.6
20260507190804 6 85 0.0 1.6 0.00 0.08 0.08 49 1015.6
20260507190304 6 85 0.0 1.6 0.00 0.08 0.08 46 1015.6
20260507185803 6 85 0.0 1.6 0.00 0.08 0.08 46 1015.4
20260507185306 6 85 0.0 0.0 0.00 0.08 0.08 44 1015.5
20260507184803 6 85 0.0 0.0 0.00 0.08 0.08 44 1015.5
20260507183804 6 85 0.0 1.6 0.00 0.08 0.08 45 1015.4
20260507182804 6 86 0.0 3.2 0.00 0.08 0.08 45 1015.4
20260507182306 7 110 1.6 3.2 0.00 0.08 0.08 44 1015.3
20260507181803 7 178 0.0 3.2 0.00 0.08 0.08 44 1015.3
20260507181304 7 187 1.6 3.2 0.00 0.08 0.08 43 1015.4
20260507180804 7 233 1.6 3.2 0.00 0.08 0.08 44 1015.4
20260507180304 7 233 0.0 1.6 0.00 0.08 0.08 43 1015.4
20260507175803 7 233 1.6 3.2 0.00 0.08 0.08 41 1015.4
20260507175306 7 250 0.0 1.6 0.00 0.08 0.08 42 1015.5
20260507174804 7 250 0.0 1.6 0.00 0.08 0.08 42 1015.4
20260507174304 7 250 0.0 1.6 0.00 0.08 0.08 43 1015.4
20260507173804 7 250 1.6 3.2 0.00 0.08 0.08 42 1015.4
20260507173303 7 254 0.0 1.6 0.00 0.08 0.08 43 1015.4
20260507172803 7 253 1.6 1.6 0.00 0.08 0.08 43 1015.3
20260507172307 7 245 1.6 3.2 0.00 0.08 0.08 43 1015.3
20260507171803 7 255 0.0 3.2 0.00 0.08 0.08 42 1015.2
20260507171304 7 231 0.0 3.2 0.00 0.08 0.08 42 1015.2
20260507170803 7 266 1.6 4.8 0.00 0.08 0.08 43 1015.3
20260507170303 7 252 1.6 4.8 0.00 0.08 0.08 43 1015.3
20260507165804 7 243 3.2 4.8 0.00 0.08 0.08 41 1015.3
20260507165306 7 209 3.2 4.8 0.00 0.08 0.08 42 1015.3
20260507164804 7 179 1.6 4.8 0.00 0.08 0.08 41 1015.3
20260507164304 7 198 3.2 4.8 0.00 0.08 0.08 41 1015.2
20260507163804 7 172 1.6 4.8 0.00 0.08 0.08 42 1015.3
20260507163303 7 79 0.0 3.2 0.00 0.08 0.08 42 1015.3
20260507162804 7 225 3.2 4.8 0.00 0.08 0.08 39 1015.3
20260507162306 7 172 1.6 4.8 0.00 0.08 0.08 40 1015.3
20260507161804 7 217 3.2 4.8 0.00 0.08 0.08 40 1015.4
20260507161304 7 198 1.6 8.0 0.00 0.08 0.08 39 1015.4
20260507160304 7 158 3.2 4.8 0.00 0.08 0.08 38 1015.5
20260507155804 7 187 1.6 4.8 0.00 0.08 0.08 41 1015.5
20260507155306 7 71 1.6 8.0 0.00 0.08 0.08 40 1015.5
20260507154803 7 39 3.2 8.0 0.00 0.08 0.08 40 1015.5
20260507154304 7 147 1.6 4.8 0.00 0.08 0.08 39 1015.5
20260507153803 7 111 3.2 4.8 0.00 0.08 0.08 40 1015.5
20260507152804 7 171 4.8 8.0 0.00 0.08 0.08 40 1015.5
20260507152306 7 54 3.2 9.7 0.00 0.08 0.08 39 1015.4
20260507151304 7 121 3.2 4.8 0.00 0.08 0.08 42 1015.5
20260507150804 7 87 3.2 9.7 0.00 0.08 0.08 40 1015.5
20260507150303 7 195 3.2 8.0 0.00 0.08 0.08 41 1015.5
20260507145803 7 148 4.8 8.0 0.00 0.08 0.08 41 1015.6
20260507145306 7 88 4.8 8.0 0.00 0.08 0.08 41 1015.4
20260507144304 7 29 4.8 16.1 0.00 0.08 0.08 40 1015.4
20260507143804 7 191 4.8 8.0 0.00 0.08 0.08 41 1015.5
20260507143304 7 138 4.8 14.5 0.00 0.08 0.08 40 1015.5
20260507142804 8 103 1.6 8.0 0.00 0.08 0.08 44 1015.5
20260507142306 8 85 3.2 11.3 0.00 0.08 0.08 43 1015.5
20260507141803 7 332 1.6 8.0 0.00 0.08 0.08 43 1015.5
20260507141303 8 210 4.8 9.7 0.00 0.08 0.08 40 1015.6
20260507140804 7 27 3.2 9.7 0.00 0.08 0.08 44 1015.5
20260507135804 7 216 4.8 11.3 0.00 0.08 0.08 41 1015.6
20260507135306 8 155 4.8 19.3 0.00 0.08 0.08 45 1015.6
20260507134804 7 235 3.2 12.9 0.00 0.08 0.08 43 1015.6
20260507134304 7 255 4.8 9.7 0.00 0.08 0.08 43 1015.7
20260507133803 7 222 4.8 8.0 0.00 0.08 0.08 43 1015.7
20260507133304 7 203 4.8 8.0 0.00 0.08 0.08 42 1015.7
20260507132804 7 22 1.6 4.8 0.00 0.08 0.08 45 1015.7
20260507132307 7 252 8.0 11.3 0.00 0.08 0.08 39 1015.7
20260507131804 7 249 3.2 16.1 0.00 0.08 0.08 45 1015.8
20260507131304 7 259 8.0 19.3 0.00 0.08 0.08 43 1015.8
20260507130304 7 274 8.0 19.3 0.00 0.08 0.08 44 1015.9
20260507125803 8 226 3.2 14.5 0.00 0.08 0.08 43 1015.8
20260507125306 8 228 6.4 14.5 0.00 0.08 0.08 42 1015.7
20260507124803 8 191 3.2 8.0 0.00 0.08 0.08 43 1015.8
20260507123803 7 279 3.2 12.9 0.00 0.08 0.08 44 1015.8
20260507123304 7 220 3.2 16.1 0.00 0.08 0.08 46 1015.7
20260507122803 7 180 4.8 12.9 0.00 0.08 0.08 44 1015.7
20260507122307 7 266 9.7 19.3 0.00 0.08 0.08 47 1015.7
20260507121804 7 251 9.7 19.3 0.00 0.08 0.08 48 1015.7
20260507121304 7 248 8.0 14.5 0.00 0.08 0.08 47 1015.7
20260507120803 8 224 4.8 14.5 0.00 0.08 0.08 48 1015.7
20260507120303 7 266 4.8 14.5 0.00 0.08 0.08 48 1015.7
20260507115803 8 263 4.8 11.3 0.00 0.08 0.08 50 1015.7
20260507115307 6 200 4.8 16.1 0.00 0.08 0.08 49 1015.8
20260507114804 7 270 6.4 16.1 0.00 0.08 0.08 48 1015.7
20260507114303 6 245 9.7 14.5 0.00 0.08 0.08 47 1015.8
20260507112804 7 244 4.8 9.7 0.00 0.08 0.08 46 1015.6
20260507112306 6 220 6.4 14.5 0.00 0.08 0.08 51 1015.7
20260507111804 6 249 4.8 14.5 0.00 0.08 0.08 48 1015.8
20260507111304 7 201 3.2 4.8 0.00 0.08 0.08 51 1015.8
20260507110803 7 196 3.2 8.0 0.00 0.08 0.08 50 1015.7
20260507110303 6 41 1.6 9.7 0.00 0.08 0.08 55 1015.7
20260507105804 6 240 3.2 8.0 0.00 0.08 0.08 56 1015.7
20260507104804 7 141 3.2 4.8 0.00 0.08 0.08 52 1015.5
20260507104304 8 273 3.2 11.3 0.00 0.08 0.08 55 1015.5
20260507103804 7 282 4.8 11.3 0.00 0.08 0.08 55 1015.5
20260507103303 6 273 8.0 14.5 0.00 0.08 0.08 60 1015.5
20260507102804 5 252 8.0 19.3 0.00 0.08 0.08 57 1015.4
20260507101804 6 27 3.2 12.9 0.00 0.08 0.08 60 1015.4
20260507101303 6 276 1.6 9.7 0.00 0.08 0.08 59 1015.4
20260507100303 6 224 1.6 11.3 0.00 0.08 0.08 56 1015.2
20260507095803 5 274 1.6 4.8 0.00 0.08 0.08 63 1015.2
20260507095306 6 227 6.4 14.5 0.00 0.08 0.08 56 1015.3
20260507094804 6 287 3.2 8.0 0.00 0.08 0.08 62 1015.4
20260507093804 5 187 1.6 3.2 0.00 0.08 0.08 62 1015.3
20260507092803 6 252 1.6 4.8 0.00 0.08 0.08 66 1015.3
20260507092306 4 272 3.2 12.9 0.00 0.08 0.08 70 1015.3
20260507091803 4 274 8.0 19.3 0.00 0.08 0.08 67 1015.3
20260507091303 4 184 3.2 8.0 0.00 0.08 0.08 65 1015.2
20260507090803 3 221 8.0 16.1 0.00 0.08 0.08 64 1015.2
20260507085804 4 231 3.2 8.0 0.00 0.08 0.08 68 1015.2
20260507085306 4 181 3.2 14.5 0.00 0.08 0.08 66 1015.1
20260507084804 5 62 3.2 8.0 0.00 0.08 0.08 67 1015.1
20260507084304 5 39 3.2 8.0 0.00 0.08 0.08 68 1015.1
20260507083303 3 192 3.2 9.7 0.00 0.08 0.08 71 1015.2
20260507082804 3 238 3.2 11.3 0.00 0.08 0.08 69 1015.1
20260507082306 3 206 4.8 8.0 0.00 0.08 0.08 70 1015.0
20260507081803 3 215 3.2 11.3 0.00 0.08 0.08 70 1015.0
20260507081304 3 250 4.8 8.0 0.00 0.08 0.08 70 1014.9
20260507080804 3 222 4.8 12.9 0.00 0.08 0.08 71 1015.0
20260507080304 3 264 3.2 4.8 0.00 0.08 0.08 70 1015.0
20260507075803 3 256 6.4 11.3 0.00 0.08 0.08 70 1014.9
20260507075306 4 253 1.6 4.8 0.00 0.08 0.08 74 1014.7
20260507074803 4 45 1.6 4.8 0.00 0.10 0.08 75 1014.7
20260507074304 4 52 3.2 8.0 0.00 0.10 0.08 75 1014.7
20260507073804 3 163 1.6 1.6 0.00 0.10 0.08 76 1014.7
20260507073304 3 91 1.6 4.8 0.00 0.10 0.08 77 1014.8
20260507072804 3 93 1.6 4.8 0.00 0.10 0.08 80 1014.8
20260507072306 3 130 1.6 8.0 0.03 0.10 0.08 77 1014.8
20260507071804 3 43 3.2 8.0 0.03 0.10 0.08 75 1014.8
20260507071304 3 25 1.6 8.0 0.03 0.10 0.08 79 1014.8
20260507065306 2 350 0.0 1.6 0.03 0.10 0.08 77 1014.7
20260507064804 2 18 0.0 4.8 0.03 0.10 0.08 80 1014.7
20260507064304 2 39 1.6 3.2 0.03 0.10 0.08 77 1014.7
20260507063803 2 40 0.0 3.2 0.03 0.10 0.08 81 1014.6
20260507063303 2 40 1.6 3.2 0.03 0.10 0.08 82 1014.5
20260507062306 1 2 0.0 1.6 0.03 0.10 0.05 87 1014.5
20260507061804 1 341 0.0 1.6 0.03 0.10 0.05 87 1014.6
20260507061303 1 341 0.0 1.6 0.05 0.10 0.05 87 1014.4
20260507060803 1 341 1.6 3.2 0.05 0.10 0.05 84 1014.4
20260507060304 1 252 0.0 1.6 0.05 0.10 0.05 79 1014.4
20260507055803 1 252 0.0 0.0 0.05 0.10 0.05 79 1014.3
20260507055306 1 252 0.0 0.0 0.05 0.10 0.05 80 1014.2
20260507054804 1 252 0.0 1.6 0.05 0.10 0.05 83 1014.3
20260507054304 1 252 0.0 1.6 0.05 0.10 0.05 84 1014.3
20260507053803 1 252 0.0 1.6 0.05 0.10 0.05 83 1014.2
20260507053303 1 252 0.0 1.6 0.05 0.10 0.05 85 1014.3
20260507052803 0 252 0.0 1.6 0.03 0.08 0.03 84 1014.2
20260507052306 0 253 0.0 1.6 0.03 0.08 0.03 85 1014.2
20260507051303 0 252 0.0 1.6 0.00 0.05 0.00 86 1014.1
20260507050304 0 254 1.6 3.2 0.00 0.05 0.00 87 1014.1
20260507044803 0 274 0.0 1.6 0.00 0.05 0.00 89 1014.1
20260507044304 0 272 0.0 1.6 0.00 0.05 0.00 89 1014.1
20260507043804 0 272 0.0 1.6 0.00 0.05 0.00 89 1014.0
20260507042804 0 267 0.0 0.0 0.00 0.05 0.00 89 1014.0
20260507042306 0 267 0.0 0.0 0.00 0.05 0.00 89 1014.1
20260507041803 0 267 0.0 0.0 0.00 0.05 0.00 89 1014.0
20260507040804 0 267 0.0 0.0 0.00 0.05 0.00 89 1014.0
20260507040303 0 267 0.0 1.6 0.00 0.05 0.00 88 1014.0
20260507035804 0 263 0.0 3.2 0.00 0.05 0.00 88 1014.0
20260507035306 0 274 0.0 1.6 0.00 0.05 0.00 88 1013.8
20260507034304 0 277 1.6 3.2 0.00 0.05 0.00 88 1013.7
20260507033804 0 308 0.0 1.6 0.00 0.05 0.00 88 1013.7
20260507033303 0 308 0.0 1.6 0.00 0.05 0.00 88 1013.7
20260507031804 0 310 0.0 1.6 0.00 0.05 0.00 88 1013.6
20260507031304 0 309 0.0 1.6 0.00 0.05 0.00 87 1013.6
20260507030803 0 309 0.0 1.6 0.00 0.05 0.00 87 1013.5
20260507030303 0 309 0.0 0.0 0.00 0.05 0.00 87 1013.5